Date String (YYYY-MM-DD hh:mm:ss) UTC,Instrument flags,Ambient pressure (hPa),Sample flow (lpm),Bypass flow (lpm),Sample temperature (°C),Ambient temperature (°C),ASC tube jacket temperature (°C),LED temperature (°C),Box temperature (°C),Sample RH (%),Span deviation,Mass concentration (μg/m³),Mass concentration (μg/m³),Mass concentration (μg/m³)
DateTimeUTC,F1_M11,P_M11,Q1_M11,Q2_M11,T1_M11,T2_M11,T3_M11,T4_M11,T5_M11,U1_M11,ZSPAN_M11,X0_M11,X2_M11,X1_M11
2022-05-16 08:00:00,,0827.2,5.00,0.00,30.2,29.3,00.0,39.1,31.9,14.8,0000.0,0009.78,0003.62,0002.15
2022-05-16 08:01:00,,0827.2,5.00,0.00,30.2,29.3,00.0,39.2,32.0,14.8,0000.0,0010.06,0003.65,0002.17
2022-05-16 08:02:00,,0827.1,5.00,0.00,30.2,29.3,00.0,39.2,32.0,14.8,0000.0,0010.14,0003.67,0002.21
2022-05-16 08:03:00,,0827.2,5.00,0.00,30.2,29.3,00.0,39.2,32.0,14.8,0000.0,0010.16,0003.66,0002.22
2022-05-16 08:04:00,,0827.1,5.00,0.00,30.2,29.3,00.0,39.2,32.0,14.8,0000.0,0010.12,0003.71,0002.22
2022-05-16 08:05:00,,0827.1,5.01,0.00,30.2,29.3,00.0,39.2,32.0,14.8,0000.0,0010.21,0003.74,0002.22
2022-05-16 08:06:00,,0827.1,4.99,0.00,30.2,29.3,00.0,39.2,32.0,14.8,0000.0,0010.44,0003.69,0002.22
2022-05-16 08:07:00,,0827.1,5.00,0.00,30.2,29.3,00.0,39.2,31.9,14.7,0000.0,0010.25,0003.68,0002.23
2022-05-16 08:08:00,,0827.1,5.01,0.00,30.2,29.3,00.0,39.2,31.9,14.8,0000.0,0010.92,0003.71,0002.22
2022-05-16 08:09:00,,0827.1,5.00,0.00,30.1,29.2,00.0,39.2,31.9,14.8,0000.0,0011.57,0003.71,0002.24
2022-05-16 08:10:00,,0827.1,5.00,0.00,30.1,29.2,00.0,39.1,31.9,14.8,0000.0,0011.30,0003.72,0002.24
2022-05-16 08:11:00,,0827.1,5.00,0.00,30.1,29.2,00.0,39.1,31.9,14.8,0000.0,0011.06,0003.74,0002.23
2022-05-16 08:12:00,,0827.1,5.00,0.00,30.1,29.2,00.0,39.1,31.9,14.7,0000.0,0011.16,0003.69,0002.23
2022-05-16 08:13:00,,0827.1,5.00,0.00,30.1,29.2,00.0,39.1,31.9,14.8,0000.0,0011.29,0003.66,0002.22
2022-05-16 08:14:00,,0827.1,5.00,0.00,30.1,29.2,00.0,39.1,31.8,14.9,0000.0,0011.51,0003.62,0002.21
2022-05-16 08:15:00,,0827.1,4.99,0.00,30.1,29.2,00.0,39.1,31.8,14.9,0000.0,0011.62,0003.62,0002.21
2022-05-16 08:16:00,,0827.1,5.01,0.00,30.1,29.2,00.0,39.1,31.9,15.0,0000.0,0011.89,0003.61,0002.22
2022-05-16 08:17:00,,0827.0,5.01,0.00,30.1,29.2,00.0,39.1,31.9,14.8,0000.0,0011.73,0003.66,0002.21
2022-05-16 08:18:00,,0827.1,5.00,0.00,30.1,29.2,00.0,39.1,31.9,14.7,0000.0,0011.62,0003.70,0002.21
2022-05-16 08:19:00,,0827.1,5.00,0.00,30.1,29.2,00.0,39.1,31.9,14.7,0000.0,0011.27,0003.70,0002.24
2022-05-16 08:20:00,,0827.0,5.00,0.00,30.1,29.2,00.0,39.1,31.9,14.7,0000.0,0010.62,0003.71,0002.24
2022-05-16 08:21:00,,0827.0,4.99,0.00,30.1,29.2,00.0,39.1,31.9,14.7,0000.0,0010.60,0003.72,0002.23
2022-05-16 08:22:00,,0827.1,5.01,0.00,30.1,29.2,00.0,39.1,31.9,14.8,0000.0,0010.35,0003.69,0002.24
2022-05-16 08:23:00,,0827.1,5.01,0.00,30.1,29.3,00.0,39.1,31.9,15.0,0000.0,0010.30,0003.68,0002.23
2022-05-16 08:24:00,,0827.1,4.99,0.00,30.1,29.3,00.0,39.1,31.9,15.0,0000.0,0010.14,0003.64,0002.22
2022-05-16 08:25:00,,0827.1,5.01,0.00,30.1,29.3,00.0,39.1,31.9,14.9,0000.0,0010.15,0003.66,0002.23
2022-05-16 08:26:00,,0827.1,5.00,0.00,30.1,29.2,00.0,39.1,31.9,14.9,0000.0,0010.28,0003.64,0002.21
2022-05-16 08:27:00,,0827.1,4.99,0.00,30.1,29.2,00.0,39.1,31.9,14.8,0000.0,0009.91,0003.64,0002.20
2022-05-16 08:28:00,,0827.0,5.01,0.00,30.1,29.2,00.0,39.1,31.9,14.8,0000.0,0010.08,0003.62,0002.21
2022-05-16 08:29:00,,0827.0,5.00,0.00,30.1,29.2,00.0,39.1,31.9,14.9,0000.0,0010.13,0003.62,0002.22
2022-05-16 08:30:00,,0827.0,4.99,0.00,30.1,29.2,00.0,39.1,31.8,14.9,0000.0,0010.36,0003.64,0002.22
2022-05-16 08:31:00,,0827.0,5.01,0.00,30.1,29.2,00.0,39.1,31.9,14.9,0000.0,0010.65,0003.61,0002.19
2022-05-16 08:32:00,,0827.0,4.99,0.00,30.1,29.2,00.0,39.1,31.9,14.9,0000.0,0010.85,0003.60,0002.18
2022-05-16 08:33:00,,0827.0,5.01,0.00,30.1,29.2,00.0,39.1,31.9,14.9,0000.0,0011.48,0003.61,0002.18
2022-05-16 08:34:00,,0827.0,5.01,0.00,30.1,29.2,00.0,39.1,31.9,14.9,0000.0,0011.89,0003.61,0002.17
2022-05-16 08:35:00,,0827.0,5.00,0.00,30.1,29.2,00.0,39.1,31.9,14.8,0000.0,0011.51,0003.65,0002.17
2022-05-16 08:36:00,,0827.0,4.99,0.00,30.1,29.3,00.0,39.1,31.9,14.8,0000.0,0011.45,0003.65,0002.16
2022-05-16 08:37:00,,0827.0,5.01,0.00,30.1,29.3,00.0,39.1,31.9,14.8,0000.0,0010.84,0003.65,0002.16
2022-05-16 08:38:00,,0827.0,5.00,0.00,30.1,29.3,00.0,39.1,31.9,14.8,0000.0,0010.96,0003.65,0002.17
2022-05-16 08:39:00,,0827.0,4.99,0.00,30.1,29.3,00.0,39.1,31.9,14.9,0000.0,0011.05,0003.63,0002.16
2022-05-16 08:40:00,,0827.0,5.00,0.00,30.2,29.3,00.0,39.1,31.9,14.9,0000.0,0010.61,0003.62,0002.14
2022-05-16 08:41:00,,0827.0,5.00,0.00,30.2,29.3,00.0,39.1,32.0,14.9,0000.0,0010.16,0003.59,0002.12
2022-05-16 08:42:00,,0827.0,5.00,0.00,30.2,29.3,00.0,39.1,31.9,14.9,0000.0,0009.77,0003.60,0002.13
2022-05-16 08:43:00,,0827.0,5.01,0.00,30.2,29.3,00.0,39.1,31.9,15.0,0000.0,0009.95,0003.63,0002.13
2022-05-16 08:44:00,,0827.0,5.00,0.00,30.1,29.3,00.0,39.1,31.9,15.1,0000.0,0009.62,0003.63,0002.13
2022-05-16 08:45:00,,0827.0,4.99,0.00,30.1,29.2,00.0,39.1,31.9,15.3,0000.0,0009.10,0003.63,0002.13
2022-05-16 08:46:00,,0827.0,5.00,0.00,30.1,29.2,00.0,39.1,31.9,15.4,0000.0,0009.12,0003.64,0002.13
2022-05-16 08:47:00,,0827.0,4.99,0.00,30.1,29.2,00.0,39.1,31.8,15.5,0000.0,0009.36,0003.64,0002.14
2022-05-16 08:48:00,,0827.0,4.99,0.00,30.1,29.2,00.0,39.1,31.8,15.5,0000.0,0009.60,0003.63,0002.15
2022-05-16 08:49:00,,0827.0,5.01,0.00,30.0,29.2,00.0,39.1,31.8,15.6,0000.0,0009.55,0003.65,0002.17
2022-05-16 08:50:00,,0827.0,5.00,0.00,30.0,29.1,00.0,39.1,31.7,15.5,0000.0,0009.59,0003.62,0002.17
2022-05-16 08:51:00,,0826.9,4.99,0.00,30.0,29.1,00.0,39.1,31.7,15.4,0000.0,0010.39,0003.61,0002.18
2022-05-16 08:52:00,,0826.9,4.99,0.00,30.0,29.1,00.0,39.0,31.7,15.5,0000.0,0010.27,0003.57,0002.19
2022-05-16 08:53:00,,0826.9,5.00,0.00,29.9,29.1,00.0,39.0,31.7,15.5,0000.0,0010.49,0003.54,0002.19
2022-05-16 08:54:00,,0826.9,5.00,0.00,29.9,29.1,00.0,39.0,31.7,15.4,0000.0,0010.54,0003.53,0002.20
2022-05-16 08:55:00,,0827.0,5.01,0.00,29.9,29.1,00.0,39.0,31.6,15.4,0000.0,0010.40,0003.52,0002.20
2022-05-16 08:56:00,,0827.0,5.00,0.00,29.9,29.0,00.0,39.0,31.6,15.4,0000.0,0010.39,0003.53,0002.19
2022-05-16 08:57:00,,0827.0,5.01,0.00,29.8,29.0,00.0,39.0,31.5,15.4,0000.0,0010.76,0003.53,0002.19
2022-05-16 08:58:00,,0827.0,4.99,0.00,29.8,29.0,00.0,38.9,31.5,15.4,0000.0,0011.56,0003.55,0002.17
2022-05-16 08:59:00,,0827.0,4.99,0.00,29.8,29.0,00.0,38.9,31.6,15.4,0000.0,0011.44,0003.56,0002.15
